Flag for Albania Weather past 2 weeks in Durrës, Albania

Now
43 °F

Broken clouds.


Feels Like: 43 °F
Forecast: 46 / 53 °F
Wind: 2 mph from North

Location: Tirana Airport

Current Time: Jan 28, 2015 at 8:31:57 AM

Latest Report: Jan 28, 2015 at 7:50 AM


Visibility: 4 mi

Pressure: 29.80 "Hg

Humidity: 87%

Dew point: 39 °F

Location of DurrësLocation

Historic Weather in Durrës — Graph

°F

Durrës temperature yesterday

Maximum temperature yesterday: 50 °F (at 12:20 PM)
Minimum temperature yesterday: 39 °F (at 12:20 AM)
Average temperature yesterday: 45 °F

Past Weeks' High & Low Weather Summary

 TemperatureHumidityPressure
High64 °F (Jan 22, 2:20 PM)100% (Jan 21, 1:50 AM)30.45 "Hg (Jan 21, 1:50 AM)
Low25 °F (Jan 14, 5:50 AM)31% (Jan 16, 1:20 PM)29.59 "Hg (Jan 22, 11:50 PM)
Average46 °F79%29.98 "Hg
* Reported Jan 13 7:20 AM — Jan 28 7:20 AM, Durrës, Weather by CustomWeather, © 2014

Note: Actual official high and low records may vary slightly from our data, if they occured in-between our weather recording intervals... More about our weather records

Advertising

Durrës weather history for previous 24 hours

 ConditionsComfort  
Time TempWeatherWind HumidityBarometerVisibility
7:20 AM
Jan 28
43 °FBroken clouds.2 mph87%29.80 "Hg4 mi
6:50 AM41 °FPartly cloudy.2 mph93%29.80 "Hg4 mi
6:20 AM41 °FPartly cloudy.2 mph93%29.77 "Hg4 mi
5:50 AM41 °FPartly cloudy.No wind93%29.77 "Hg4 mi
5:20 AM43 °FPartly cloudy.2 mph87%29.77 "Hg4 mi
4:50 AM43 °FPartly cloudy.2 mph87%29.77 "Hg4 mi
4:20 AM43 °FPartly cloudy.2 mph87%29.80 "Hg4 mi
3:50 AM43 °FPartly cloudy.2 mph87%29.80 "Hg4 mi
3:20 AM43 °FPartly cloudy.2 mph93%29.80 "Hg4 mi
2:50 AM43 °FPartly cloudy.3 mph93%29.80 "Hg4 mi
2:20 AM43 °FPartly cloudy.No wind93%29.80 "Hg4 mi
1:50 AM43 °FPassing clouds.No wind93%29.80 "Hg5 mi
1:20 AM43 °FPassing clouds.2 mph93%29.80 "Hg4 mi
12:50 AM43 °FPartly cloudy.2 mph93%29.80 "Hg4 mi
12:20 AM45 °FPartly cloudy.2 mph87%29.80 "Hg4 mi
11:50 PM
Jan 27
45 °FLight rain. Partly cloudy.2 mph87%29.80 "Hg4 mi
11:20 PM45 °FLight rain. Partly cloudy.5 mph87%29.80 "Hg5 mi
10:50 PM45 °FPassing clouds.2 mph87%29.80 "HgN/A
10:20 PM45 °FPassing clouds.2 mph87%29.83 "HgN/A
9:50 PM45 °FMostly cloudy.No wind87%29.83 "HgN/A
9:20 PM45 °FMostly cloudy.3 mph87%29.83 "HgN/A
8:50 PM45 °FMostly cloudy.No wind81%29.83 "HgN/A
8:20 PM45 °FLight rain. Mostly cloudy.3 mph81%29.83 "HgN/A
7:50 PM45 °FLight rain. Mostly cloudy.3 mph81%29.83 "HgN/A
7:20 PM46 °FMostly cloudy.3 mph76%29.83 "HgN/A
6:50 PM46 °FMostly cloudy.3 mph76%29.83 "HgN/A
6:20 PM46 °FMostly cloudy.6 mph71%29.83 "HgN/A
5:50 PM46 °FMostly cloudy.5 mph82%29.83 "HgN/A
5:20 PM48 °FMostly cloudy.1 mph82%29.83 "HgN/A
4:50 PM48 °FMostly cloudy.1 mph76%29.83 "HgN/A
4:20 PM48 °FMore clouds than sun.No wind76%29.83 "HgN/A
3:50 PM48 °FMostly cloudy.3 mph76%29.83 "HgN/A
3:20 PM50 °FMostly cloudy.3 mph71%29.80 "HgN/A
2:50 PM50 °FLight rain. Mostly cloudy.2 mph76%29.83 "HgN/A
2:20 PM50 °FMostly cloudy.3 mph76%29.83 "HgN/A
1:50 PM50 °FLight rain. Broken clouds.5 mph71%29.83 "HgN/A
1:20 PM50 °FLight rain. More clouds than sun.6 mph71%29.83 "Hg5 mi
12:50 PM50 °FLight rain. More clouds than sun.5 mph76%29.83 "HgN/A
12:20 PM50 °FPartly sunny.2 mph76%29.86 "HgN/A
11:50 AM48 °FMostly cloudy.2 mph82%29.86 "HgN/A
11:20 AM48 °FBroken clouds.3 mph76%29.89 "HgN/A
10:50 AM48 °FBroken clouds.5 mph82%29.89 "HgN/A
10:20 AM48 °FLight rain. More clouds than sun.2 mph82%29.89 "HgN/A
9:50 AM46 °FLight rain. Broken clouds.2 mph87%29.89 "HgN/A
9:20 AM45 °FLight rain. More clouds than sun.2 mph93%29.89 "Hg5 mi
8:50 AM45 °FLight rain. Broken clouds.2 mph93%29.89 "Hg3 mi
8:20 AM43 °FLight rain. Partly sunny.No wind93%29.89 "Hg5 mi
Weather by CustomWeather, © 2014

See weather overviewHow to use our weather pages